Time,TemperatureF,DewpointF,PressureIn,WindDirection,WindDirectionDegrees,WindSpeedMPH,WindSpeedGustMPH,Humidity,HourlyPrecipIn,Conditions,Clouds,dailyrainin,SoftwareType,DateUTC
2013-02-05 00:07:00,46.2,43.4,29.90,South,183,0.0,0.0,90,0.00,,,0.00,Wunderground v.1.15,2013-02-05 06:07:00,
2013-02-05 00:17:00,46.0,43.2,29.90,South,183,0.0,0.0,90,0.00,,,0.00,Wunderground v.1.15,2013-02-05 06:17:00,
2013-02-05 00:27:00,45.9,43.1,29.90,South,183,0.0,0.0,90,0.00,,,0.00,Wunderground v.1.15,2013-02-05 06:27:00,
2013-02-05 00:37:00,45.4,42.6,29.90,South,183,0.0,0.0,90,0.00,,,0.00,Wunderground v.1.15,2013-02-05 06:37:00,
2013-02-05 00:47:00,45.3,42.8,29.90,South,183,0.0,0.0,91,0.00,,,0.00,Wunderground v.1.15,2013-02-05 06:47:00,
2013-02-05 00:57:00,45.3,42.8,29.90,South,183,0.0,0.0,91,0.00,,,0.00,Wunderground v.1.15,2013-02-05 06:57:00,
2013-02-05 01:07:00,46.2,44.0,29.91,South,183,0.0,0.0,92,0.00,,,0.00,Wunderground v.1.15,2013-02-05 07:07:00,
2013-02-05 01:16:00,45.9,43.4,29.91,South,183,0.0,0.0,91,0.00,,,0.00,Wunderground v.1.15,2013-02-05 07:16:00,
2013-02-05 01:26:00,47.5,45.3,29.91,South,183,0.0,0.0,92,0.00,,,0.00,Wunderground v.1.15,2013-02-05 07:26:00,
2013-02-05 01:37:00,47.0,44.5,29.91,South,183,0.0,0.0,91,0.00,,,0.00,Wunderground v.1.15,2013-02-05 07:37:00,
2013-02-05 01:47:00,45.9,43.7,29.91,South,183,0.0,0.0,92,0.00,,,0.00,Wunderground v.1.15,2013-02-05 07:47:00,
2013-02-05 01:56:00,46.4,44.2,29.91,South,183,0.0,0.0,92,0.00,,,0.00,Wunderground v.1.15,2013-02-05 07:56:00,
2013-02-05 02:07:00,45.9,43.4,29.91,South,183,0.0,0.0,91,0.00,,,0.00,Wunderground v.1.15,2013-02-05 08:07:00,
2013-02-05 02:17:00,45.9,43.7,29.91,South,183,0.0,0.0,92,0.00,,,0.00,Wunderground v.1.15,2013-02-05 08:17:00,
2013-02-05 02:26:00,46.9,44.7,29.91,South,183,0.0,0.0,92,0.00,,,0.00,Wunderground v.1.15,2013-02-05 08:26:00,
2013-02-05 02:46:00,45.0,42.8,29.90,South,183,0.0,0.0,92,0.00,,,0.00,Wunderground v.1.15,2013-02-05 08:46:00,
2013-02-05 02:56:00,44.8,42.6,29.90,South,183,0.0,0.0,92,0.00,,,0.00,Wunderground v.1.15,2013-02-05 08:56:00,
2013-02-05 03:07:00,44.5,42.3,29.90,South,183,0.0,0.0,92,0.00,,,0.00,Wunderground v.1.15,2013-02-05 09:07:00,
2013-02-05 03:17:00,43.5,41.3,29.90,South,183,0.0,0.0,92,0.00,,,0.00,Wunderground v.1.15,2013-02-05 09:17:00,
2013-02-05 03:27:00,43.5,41.3,29.90,South,183,0.0,0.0,92,0.00,,,0.00,Wunderground v.1.15,2013-02-05 09:27:00,
2013-02-05 03:46:00,43.3,41.1,29.90,South,183,0.0,0.0,92,0.00,,,0.00,Wunderground v.1.15,2013-02-05 09:46:00,
2013-02-05 03:56:00,42.7,40.5,29.90,South,183,0.0,0.0,92,0.00,,,0.00,Wunderground v.1.15,2013-02-05 09:56:00,
2013-02-05 04:07:00,42.4,40.5,29.91,South,183,0.0,0.0,93,0.00,,,0.00,Wunderground v.1.15,2013-02-05 10:07:00,
2013-02-05 04:17:00,44.4,42.8,29.91,ESE,109,2.0,2.0,94,0.00,,,0.00,Wunderground v.1.15,2013-02-05 10:17:00,
2013-02-05 04:27:00,45.3,43.7,29.91,ESE,109,1.0,1.0,94,0.00,,,0.00,Wunderground v.1.15,2013-02-05 10:27:00,
2013-02-05 04:37:00,45.0,43.4,29.91,ESE,109,0.0,0.0,94,0.00,,,0.00,Wunderground v.1.15,2013-02-05 10:37:00,
2013-02-05 04:47:00,44.7,42.8,29.91,ESE,109,0.0,1.0,93,0.00,,,0.00,Wunderground v.1.15,2013-02-05 10:47:00,
2013-02-05 04:57:00,44.1,42.2,29.91,ESE,109,0.0,0.0,93,0.00,,,0.00,Wunderground v.1.15,2013-02-05 10:57:00,
2013-02-05 05:07:00,44.4,42.8,29.91,ESE,109,0.0,0.0,94,0.00,,,0.00,Wunderground v.1.15,2013-02-05 11:07:00,
2013-02-05 05:17:00,44.0,42.1,29.91,ESE,109,0.0,0.0,93,0.00,,,0.00,Wunderground v.1.15,2013-02-05 11:17:00,
2013-02-05 05:27:00,43.4,41.8,29.91,ESE,109,0.0,0.0,94,0.00,,,0.00,Wunderground v.1.15,2013-02-05 11:27:00,
2013-02-05 05:47:00,43.3,41.7,29.92,ESE,109,0.0,0.0,94,0.00,,,0.00,Wunderground v.1.15,2013-02-05 11:47:00,
2013-02-05 05:57:00,43.8,42.5,29.92,ESE,109,0.0,0.0,95,0.00,,,0.00,Wunderground v.1.15,2013-02-05 11:57:00,
2013-02-05 06:07:00,43.5,41.6,29.93,ESE,109,0.0,0.0,93,0.00,,,0.00,Wunderground v.1.15,2013-02-05 12:07:00,
2013-02-05 06:16:00,42.4,40.5,29.94,ESE,109,0.0,0.0,93,0.00,,,0.00,Wunderground v.1.15,2013-02-05 12:16:00,
2013-02-05 06:26:00,42.0,40.1,29.94,ESE,109,0.0,0.0,93,0.00,,,0.00,Wunderground v.1.15,2013-02-05 12:26:00,
2013-02-05 06:37:00,41.5,39.9,29.95,ESE,109,0.0,0.0,94,0.00,,,0.00,Wunderground v.1.15,2013-02-05 12:37:00,
2013-02-05 06:47:00,42.4,41.1,29.95,ESE,109,0.0,0.0,95,0.00,,,0.00,Wunderground v.1.15,2013-02-05 12:47:00,
2013-02-05 06:57:00,43.3,41.4,29.95,ESE,109,0.0,0.0,93,0.00,,,0.00,Wunderground v.1.15,2013-02-05 12:57:00,
2013-02-05 07:07:00,41.4,39.5,29.96,ESE,109,0.0,0.0,93,0.00,,,0.00,Wunderground v.1.15,2013-02-05 13:07:00,
2013-02-05 07:17:00,42.0,40.4,29.97,ESE,109,0.0,0.0,94,0.00,,,0.00,Wunderground v.1.15,2013-02-05 13:17:00,
2013-02-05 07:26:00,42.0,40.1,29.97,ESE,109,0.0,0.0,93,0.00,,,0.00,Wunderground v.1.15,2013-02-05 13:26:00,
2013-02-05 07:37:00,41.4,39.8,29.97,ESE,109,0.0,0.0,94,0.00,,,0.00,Wunderground v.1.15,2013-02-05 13:37:00,
2013-02-05 07:46:00,40.8,38.9,29.99,ESE,109,0.0,0.0,93,0.00,,,0.00,Wunderground v.1.15,2013-02-05 13:46:00,
2013-02-05 07:56:00,41.1,39.5,29.99,ESE,109,0.0,0.0,94,0.00,,,0.00,Wunderground v.1.15,2013-02-05 13:56:00,
2013-02-05 08:07:00,41.8,40.2,29.99,ESE,109,0.0,0.0,94,0.00,,,0.00,Wunderground v.1.15,2013-02-05 14:07:00,
2013-02-05 08:17:00,43.0,41.7,30.00,ESE,109,0.0,0.0,95,0.00,,,0.00,Wunderground v.1.15,2013-02-05 14:17:00,
2013-02-05 08:27:00,44.8,43.5,30.00,ESE,109,0.0,0.0,95,0.00,,,0.00,Wunderground v.1.15,2013-02-05 14:27:00,
2013-02-05 08:37:00,47.3,46.2,30.00,ESE,109,0.0,0.0,96,0.00,,,0.00,Wunderground v.1.15,2013-02-05 14:37:00,
2013-02-05 08:46:00,50.4,49.0,30.00,ESE,109,0.0,0.0,95,0.00,,,0.00,Wunderground v.1.15,2013-02-05 14:46:00,
2013-02-05 08:56:00,53.4,50.8,30.00,ESE,117,0.0,0.0,91,0.00,,,0.01,Wunderground v.1.15,2013-02-05 14:56:00,
2013-02-05 09:07:00,53.8,49.7,30.00,ESE,117,0.0,0.0,86,0.00,,,0.01,Wunderground v.1.15,2013-02-05 15:07:00,
2013-02-05 09:17:00,55.9,49.5,30.00,ESE,117,0.0,0.0,79,0.00,,,0.01,Wunderground v.1.15,2013-02-05 15:17:00,
2013-02-05 09:27:00,58.3,48.6,30.00,ESE,117,0.0,2.0,70,0.00,,,0.01,Wunderground v.1.15,2013-02-05 15:27:00,
2013-02-05 09:37:00,59.8,48.0,30.00,ESE,117,0.0,0.0,65,0.00,,,0.01,Wunderground v.1.15,2013-02-05 15:37:00,
2013-02-05 09:47:00,61.7,48.5,30.01,ESE,117,0.0,0.0,62,0.00,,,0.01,Wunderground v.1.15,2013-02-05 15:47:00,
2013-02-05 09:57:00,62.8,48.3,30.01,ESE,117,1.0,1.0,59,0.00,,,0.01,Wunderground v.1.15,2013-02-05 15:57:00,
2013-02-05 10:07:00,64.5,49.4,30.00,ESE,117,0.0,0.0,58,0.00,,,0.01,Wunderground v.1.15,2013-02-05 16:07:00,
2013-02-05 10:17:00,65.7,49.1,30.01,ESE,117,0.0,3.0,55,0.00,,,0.01,Wunderground v.1.15,2013-02-05 16:17:00,
2013-02-05 10:27:00,66.2,49.6,30.01,ESE,117,1.0,1.0,55,0.00,,,0.01,Wunderground v.1.15,2013-02-05 16:27:00,
2013-02-05 10:37:00,67.3,49.6,30.01,SSW,211,1.0,6.0,53,0.00,,,0.01,Wunderground v.1.15,2013-02-05 16:37:00,
2013-02-05 10:47:00,67.6,49.9,30.01,West,275,3.0,3.0,53,0.00,,,0.01,Wunderground v.1.15,2013-02-05 16:47:00,
2013-02-05 10:57:00,67.8,50.0,30.01,NW,317,4.0,4.0,53,0.00,,,0.01,Wunderground v.1.15,2013-02-05 16:57:00,
2013-02-05 11:07:00,68.1,50.3,30.01,NNW,332,4.0,4.0,53,0.00,,,0.01,Wunderground v.1.15,2013-02-05 17:07:00,
2013-02-05 11:16:00,68.8,49.9,30.01,NNW,332,4.0,4.0,51,0.00,,,0.01,Wunderground v.1.15,2013-02-05 17:16:00,
2013-02-05 11:26:00,69.6,49.6,30.01,West,281,3.0,6.0,49,0.00,,,0.01,Wunderground v.1.15,2013-02-05 17:26:00,
2013-02-05 11:37:00,70.5,49.9,30.00,NNE,22,4.0,4.0,48,0.00,,,0.01,Wunderground v.1.15,2013-02-05 17:37:00,
2013-02-05 11:47:00,70.6,49.4,30.00,North,360,3.0,3.0,47,0.00,,,0.01,Wunderground v.1.15,2013-02-05 17:47:00,
2013-02-05 11:57:00,71.3,48.9,30.00,North,351,3.0,3.0,45,0.00,,,0.01,Wunderground v.1.15,2013-02-05 17:57:00,
2013-02-05 12:07:00,72.0,48.3,30.00,NNW,342,4.0,5.0,43,0.00,,,0.01,Wunderground v.1.15,2013-02-05 18:07:00,
2013-02-05 12:17:00,72.2,47.2,29.99,NNW,343,3.0,3.0,41,0.00,,,0.01,Wunderground v.1.15,2013-02-05 18:17:00,
2013-02-05 12:26:00,72.5,46.8,29.99,NW,305,3.0,3.0,40,0.00,,,0.01,Wunderground v.1.15,2013-02-05 18:26:00,
2013-02-05 12:37:00,73.0,47.2,29.99,NW,311,4.0,5.0,40,0.00,,,0.01,Wunderground v.1.15,2013-02-05 18:37:00,
2013-02-05 12:46:00,73.2,46.8,29.98,NW,311,2.0,3.0,39,0.00,,,0.01,Wunderground v.1.15,2013-02-05 18:46:00,
2013-02-05 12:56:00,73.7,47.2,29.98,NW,307,3.0,4.0,39,0.00,,,0.01,Wunderground v.1.15,2013-02-05 18:56:00,
2013-02-05 13:07:00,73.9,45.3,29.97,WNW,294,3.0,3.0,36,0.00,,,0.01,Wunderground v.1.15,2013-02-05 19:07:00,
2013-02-05 13:17:00,73.9,44.5,29.97,NNW,329,3.0,4.0,35,0.00,,,0.01,Wunderground v.1.15,2013-02-05 19:17:00,
2013-02-05 13:27:00,73.7,44.3,29.97,North,355,3.0,3.0,35,0.00,,,0.01,Wunderground v.1.15,2013-02-05 19:27:00,
2013-02-05 13:46:00,74.4,45.0,29.95,East,101,3.0,4.0,35,0.00,,,0.01,Wunderground v.1.15,2013-02-05 19:46:00,
2013-02-05 13:56:00,75.5,45.2,29.95,North,9,1.0,2.0,34,0.00,,,0.01,Wunderground v.1.15,2013-02-05 19:56:00,
2013-02-05 14:07:00,75.3,45.0,29.95,North,11,3.0,3.0,34,0.00,,,0.01,Wunderground v.1.15,2013-02-05 20:07:00,
2013-02-05 14:17:00,75.3,45.0,29.94,NW,309,2.0,2.0,34,0.00,,,0.01,Wunderground v.1.15,2013-02-05 20:17:00,
2013-02-05 14:27:00,75.3,44.2,29.94,SE,126,3.0,3.0,33,0.00,,,0.01,Wunderground v.1.15,2013-02-05 20:27:00,
2013-02-05 14:37:00,75.6,43.7,29.94,NNE,24,2.0,2.0,32,0.00,,,0.01,Wunderground v.1.15,2013-02-05 20:37:00,
2013-02-05 14:47:00,75.5,43.6,29.93,SW,224,3.0,3.0,32,0.00,,,0.01,Wunderground v.1.15,2013-02-05 20:47:00,
2013-02-05 14:57:00,76.0,44.0,29.93,SW,223,2.0,2.0,32,0.00,,,0.01,Wunderground v.1.15,2013-02-05 20:57:00,
2013-02-05 15:07:00,76.5,43.6,29.93,SW,221,2.0,2.0,31,0.00,,,0.01,Wunderground v.1.15,2013-02-05 21:07:00,
2013-02-05 15:17:00,76.3,44.3,29.92,NW,317,2.0,4.0,32,0.00,,,0.01,Wunderground v.1.15,2013-02-05 21:17:00,
2013-02-05 15:27:00,76.7,44.6,29.92,SW,217,1.0,2.0,32,0.00,,,0.01,Wunderground v.1.15,2013-02-05 21:27:00,
2013-02-05 15:37:00,76.9,44.8,29.92,SW,217,3.0,4.0,32,0.00,,,0.01,Wunderground v.1.15,2013-02-05 21:37:00,
2013-02-05 15:47:00,77.0,44.9,29.92,SW,217,2.0,2.0,32,0.00,,,0.01,Wunderground v.1.15,2013-02-05 21:47:00,
2013-02-05 15:57:00,77.0,44.0,29.92,SW,217,1.0,1.0,31,0.00,,,0.01,Wunderground v.1.15,2013-02-05 21:57:00,
2013-02-05 16:07:00,77.9,44.0,29.92,SW,217,0.0,2.0,30,0.00,,,0.01,Wunderground v.1.15,2013-02-05 22:07:00,
2013-02-05 16:16:00,77.8,44.7,29.92,SW,217,1.0,1.0,31,0.00,,,0.01,Wunderground v.1.15,2013-02-05 22:16:00,
2013-02-05 16:26:00,77.4,44.4,29.92,ENE,65,1.0,3.0,31,0.00,,,0.01,Wunderground v.1.15,2013-02-05 22:26:00,
2013-02-05 16:37:00,76.9,44.0,29.92,NNE,27,2.0,2.0,31,0.00,,,0.01,Wunderground v.1.15,2013-02-05 22:37:00,
2013-02-05 16:47:00,76.9,44.0,29.92,NNE,27,2.0,2.0,31,0.00,,,0.01,Wunderground v.1.15,2013-02-05 22:47:00,
2013-02-05 16:57:00,76.7,43.8,29.92,NNE,27,2.0,2.0,31,0.00,,,0.01,Wunderground v.1.15,2013-02-05 22:57:00,
2013-02-05 17:07:00,76.5,43.6,29.92,NE,44,2.0,3.0,31,0.00,,,0.01,Wunderground v.1.15,2013-02-05 23:07:00,
2013-02-05 17:17:00,76.3,43.4,29.92,ENE,66,2.0,2.0,31,0.00,,,0.01,Wunderground v.1.15,2013-02-05 23:17:00,
2013-02-05 17:26:00,76.2,45.0,29.92,ENE,67,2.0,2.0,33,0.00,,,0.01,Wunderground v.1.15,2013-02-05 23:26:00,
2013-02-05 17:37:00,75.6,44.5,29.92,ENE,66,1.0,1.0,33,0.00,,,0.01,Wunderground v.1.15,2013-02-05 23:37:00,
2013-02-05 17:46:00,75.3,45.0,29.93,ENE,66,1.0,1.0,34,0.00,,,0.01,Wunderground v.1.15,2013-02-05 23:46:00,
2013-02-05 17:56:00,74.4,45.7,29.93,ENE,66,0.0,0.0,36,0.00,,,0.01,Wunderground v.1.15,2013-02-05 23:56:00,
2013-02-05 18:07:00,72.9,48.5,29.93,ENE,66,0.0,0.0,42,0.00,,,0.01,Wunderground v.1.15,2013-02-06 00:07:00,
2013-02-05 18:17:00,70.6,47.6,29.94,ENE,66,0.0,0.0,44,0.00,,,0.01,Wunderground v.1.15,2013-02-06 00:17:00,
2013-02-05 18:27:00,68.8,46.6,29.94,ENE,66,0.0,0.0,45,0.00,,,0.01,Wunderground v.1.15,2013-02-06 00:27:00,
2013-02-05 18:37:00,66.8,48.6,29.95,ENE,66,0.0,0.0,52,0.00,,,0.01,Wunderground v.1.15,2013-02-06 00:37:00,
2013-02-05 18:46:00,64.5,47.5,29.96,ENE,66,0.0,0.0,54,0.00,,,0.01,Wunderground v.1.15,2013-02-06 00:46:00,
2013-02-05 18:56:00,63.4,47.9,29.96,ENE,66,0.0,0.0,57,0.00,,,0.01,Wunderground v.1.15,2013-02-06 00:56:00,
2013-02-05 19:07:00,61.7,48.1,29.97,ENE,66,0.0,0.0,61,0.00,,,0.01,Wunderground v.1.15,2013-02-06 01:07:00,
2013-02-05 19:17:00,60.7,47.6,29.98,ENE,66,0.0,0.0,62,0.00,,,0.01,Wunderground v.1.15,2013-02-06 01:17:00,
2013-02-05 19:27:00,59.8,47.2,29.98,ENE,66,0.0,0.0,63,0.00,,,0.01,Wunderground v.1.15,2013-02-06 01:27:00,
2013-02-05 19:37:00,58.6,47.3,29.99,ENE,66,0.0,0.0,66,0.00,,,0.01,Wunderground v.1.15,2013-02-06 01:37:00,
2013-02-05 19:47:00,58.5,47.2,29.99,ENE,66,0.0,0.0,66,0.00,,,0.01,Wunderground v.1.15,2013-02-06 01:47:00,
2013-02-05 19:57:00,57.8,46.9,29.99,ENE,66,0.0,0.0,67,0.00,,,0.01,Wunderground v.1.15,2013-02-06 01:57:00,
2013-02-05 20:07:00,56.8,46.7,30.00,ENE,66,0.0,0.0,69,0.00,,,0.01,Wunderground v.1.15,2013-02-06 02:07:00,
2013-02-05 20:17:00,56.5,46.8,29.99,ENE,66,0.0,0.0,70,0.00,,,0.01,Wunderground v.1.15,2013-02-06 02:17:00,
2013-02-05 20:27:00,56.7,46.6,29.99,ENE,66,0.0,0.0,69,0.00,,,0.01,Wunderground v.1.15,2013-02-06 02:27:00,
2013-02-05 20:37:00,56.7,46.6,29.99,ENE,66,0.0,0.0,69,0.00,,,0.01,Wunderground v.1.15,2013-02-06 02:37:00,
2013-02-05 20:47:00,56.4,46.4,30.01,ENE,66,0.0,0.0,69,0.00,,,0.01,Wunderground v.1.15,2013-02-06 02:47:00,
2013-02-05 20:56:00,56.1,46.4,30.01,ENE,66,0.0,0.0,70,0.00,,,0.01,Wunderground v.1.15,2013-02-06 02:56:00,
2013-02-05 21:07:00,55.9,46.3,30.01,ENE,66,0.0,0.0,70,0.00,,,0.01,Wunderground v.1.15,2013-02-06 03:07:00,
2013-02-05 21:16:00,55.9,46.6,30.00,ENE,66,0.0,0.0,71,0.00,,,0.01,Wunderground v.1.15,2013-02-06 03:16:00,
2013-02-05 21:27:00,55.8,46.5,30.00,ENE,66,0.0,0.0,71,0.00,,,0.01,Wunderground v.1.15,2013-02-06 03:27:00,
2013-02-05 21:37:00,55.8,46.9,30.00,ENE,66,0.0,0.0,72,0.00,,,0.01,Wunderground v.1.15,2013-02-06 03:37:00,
2013-02-05 21:47:00,56.2,47.3,30.00,ENE,66,0.0,0.0,72,0.00,,,0.01,Wunderground v.1.15,2013-02-06 03:47:00,
2013-02-05 21:57:00,56.1,47.2,30.00,ENE,66,0.0,0.0,72,0.00,,,0.01,Wunderground v.1.15,2013-02-06 03:57:00,
2013-02-05 22:07:00,55.9,47.4,30.00,ENE,66,0.0,0.0,73,0.00,,,0.01,Wunderground v.1.15,2013-02-06 04:07:00,
2013-02-05 22:16:00,55.8,47.3,30.00,ENE,66,0.0,0.0,73,0.00,,,0.01,Wunderground v.1.15,2013-02-06 04:16:00,
2013-02-05 22:26:00,55.6,47.4,30.00,ENE,66,0.0,0.0,74,0.00,,,0.01,Wunderground v.1.15,2013-02-06 04:26:00,
2013-02-05 22:37:00,55.9,47.4,30.01,ENE,66,0.0,0.0,73,0.00,,,0.01,Wunderground v.1.15,2013-02-06 04:37:00,
2013-02-05 22:46:00,55.2,47.1,30.01,ENE,66,0.0,0.0,74,0.00,,,0.01,Wunderground v.1.15,2013-02-06 04:46:00,
2013-02-05 22:56:00,54.7,46.9,30.01,ENE,66,0.0,0.0,75,0.00,,,0.01,Wunderground v.1.15,2013-02-06 04:56:00,
2013-02-05 23:07:00,54.6,46.8,30.00,ENE,66,0.0,0.0,75,0.00,,,0.01,Wunderground v.1.15,2013-02-06 05:07:00,
2013-02-05 23:17:00,54.6,47.2,30.00,ENE,66,0.0,0.0,76,0.00,,,0.01,Wunderground v.1.15,2013-02-06 05:17:00,
2013-02-05 23:26:00,55.0,47.6,30.00,ENE,66,0.0,0.0,76,0.00,,,0.01,Wunderground v.1.15,2013-02-06 05:26:00,
2013-02-05 23:37:00,55.0,47.2,29.99,ENE,66,0.0,0.0,75,0.00,,,0.01,Wunderground v.1.15,2013-02-06 05:37:00,
2013-02-05 23:46:00,54.4,47.0,30.00,ENE,66,0.0,0.0,76,0.00,,,0.01,Wunderground v.1.15,2013-02-06 05:46:00,
2013-02-05 23:56:00,54.3,47.2,30.00,ENE,66,0.0,0.0,77,0.00,,,0.01,Wunderground v.1.15,2013-02-06 05:56:00,